Weather History for Hettinger, ND

Change the Weather History Date:

Sunday, December 30, 2012

  Actual Average Record
Temperature  
Mean Temperature 12 °F -  
Max Temperature 25 °F 28 °F 46 °F (2011)
Min Temperature -2 °F 5 °F -15 °F (2008)
Degree Days  
Heating Degree Days 53 49  
Month to date heating degree days 1400 1401  
Since 1 July heating degree days 3378 3531  
Moisture  
Dew Point 12 °F    
Average Humidity 81    
Maximum Humidity 95    
Minimum Humidity 67    
Precipitation  
Precipitation T in 0.01 in 0.05 in (2003)
Month to date precipitation 0.16 0.30  
Year to date precipitation 14.74 16.09  
Sea Level Pressure  
Sea Level Pressure 30.07 in    
Wind  
Wind Speed 7 mph (WNW)    
Max Wind Speed 22 mph    
Max Gust Speed 25 mph    
Visibility 10 miles    
Events Snow    
T = Trace of Precipitation, MM = Missing Value Source: NWS Daily Summary

Daily Weather History Graph

Daily Weather History Graph

Search for Another Location

Airport:

Trip Planner

Search our weather history database for the weather conditions in past years. The results will help you decide how hot, cold, wet, or windy it might be!

Date:

Astronomy

Dec. 30, 2012 Rise Set
Actual Time 7:32 AM MST 4:14 PM MST
Civil Twilight 6:58 AM MST 4:49 PM MST
Nautical Twilight 6:20 AM MST 5:26 PM MST
Astronomical Twilight 5:43 AM MST 6:03 PM MST
Moon 6:56 PM MST (12/30) 8:34 AM MST (12/30)
Length of Visible Light 9h 50m
Length of Day
8h 41m
Waning Gibbous, 95% of the Moon is Illuminated
Dec 30
Waning Gibbous
Jan 4
Last Quarter
Jan 11
New
Jan 18
First Quarter
Jan 26
Full

Hourly Weather History & Observations

Time (MST) Temp. Windchill Dew Point Humidity Pressure Visibility Wind Dir Wind Speed Gust Speed Precip Events Conditions
12:53 AM 1.9 °F - -2.0 °F 83% 30.06 in 10.0 mi Calm Calm - N/A   Clear
1:53 AM 6.1 °F - 1.9 °F 83% 30.04 in 10.0 mi Calm Calm - N/A   Clear
2:53 AM 3.0 °F -4.4 °F -0.9 °F 84% 30.06 in 10.0 mi NW 3.5 mph - N/A   Clear
3:53 AM 6.1 °F -0.9 °F 3.0 °F 87% 30.06 in 10.0 mi NW 3.5 mph - N/A   Clear
4:53 AM 1.9 °F -9.2 °F -0.9 °F 88% 30.06 in 10.0 mi WNW 5.8 mph - N/A   Clear
5:53 AM 3.9 °F -3.4 °F -0.9 °F 80% 30.06 in 10.0 mi WNW 3.5 mph - N/A   Clear
6:53 AM 8.1 °F -3.2 °F 3.0 °F 80% 30.06 in 10.0 mi WNW 6.9 mph - N/A   Clear
7:53 AM 14.0 °F 5.1 °F 8.1 °F 77% 30.04 in 10.0 mi WNW 5.8 mph - N/A   Scattered Clouds
8:53 AM 17.1 °F 2.0 °F 10.0 °F 74% 30.06 in 10.0 mi WNW 16.1 mph - N/A   Clear
9:53 AM 19.0 °F 6.8 °F 10.9 °F 71% 30.08 in 10.0 mi NW 11.5 mph - N/A   Clear
10:53 AM 21.9 °F 7.3 °F 14.0 °F 72% 30.09 in 10.0 mi WNW 18.4 mph - N/A   Mostly Cloudy
11:02 AM 21.2 °F 6.8 °F 15.8 °F 80% 29.94 in 10.0 mi WNW 17.3 mph - N/A   Mostly Cloudy
11:35 AM 23.0 °F 9.2 °F 15.8 °F 74% 29.93 in 10.0 mi WNW 17.3 mph - N/A   Overcast
11:42 AM 23.0 °F 8.7 °F 15.8 °F 74% 29.93 in 10.0 mi WNW 18.4 mph - N/A   Overcast
11:53 AM 23.0 °F 9.2 °F 16.0 °F 74% 30.07 in 10.0 mi NW 17.3 mph - N/A   Overcast
12:12 PM 21.2 °F 6.4 °F 15.8 °F 80% 29.93 in 10.0 mi NW 18.4 mph - N/A   Overcast
12:51 PM 23.0 °F 9.6 °F 17.6 °F 80% 29.93 in 10.0 mi WNW 16.1 mph - N/A   Overcast
12:53 PM 23.0 °F 9.6 °F 17.1 °F 78% 30.08 in 10.0 mi WNW 16.1 mph - N/A   Overcast
1:10 PM 24.8 °F 13.4 °F 17.6 °F 74% 29.94 in 9.0 mi WNW 12.7 mph - 0.00 in Snow Light Snow
1:37 PM 23.0 °F 11.7 °F 17.6 °F 80% 29.94 in 10.0 mi NW 11.5 mph - 0.00 in   Mostly Cloudy
1:53 PM 23.0 °F 11.1 °F 17.1 °F 78% 30.09 in 10.0 mi NW 12.7 mph - 0.00 in   Mostly Cloudy
2:53 PM 23.0 °F 13.9 °F 17.1 °F 78% 30.12 in 10.0 mi WNW 8.1 mph - N/A   Clear
3:53 PM 18.0 °F 7.7 °F 12.9 °F 81% 30.14 in 10.0 mi WNW 8.1 mph - N/A   Clear
4:53 PM 10.9 °F 4.7 °F 8.1 °F 88% 30.19 in 10.0 mi WNW 3.5 mph - N/A   Clear
5:18 PM 17.6 °F 6.4 °F 14.0 °F 86% 30.03 in 10.0 mi WNW 9.2 mph - N/A   Mostly Cloudy
5:53 PM 19.9 °F 11.1 °F 17.1 °F 89% 30.19 in 10.0 mi WNW 6.9 mph - N/A   Overcast
6:53 PM 23.0 °F 10.6 °F 19.0 °F 85% 30.18 in 10.0 mi WNW 13.8 mph - N/A   Overcast
7:53 PM 21.9 °F 12.5 °F 17.1 °F 82% 30.17 in 10.0 mi NW 8.1 mph - N/A   Overcast
8:11 PM 21.2 °F 12.6 °F 17.6 °F 86% 30.04 in 10.0 mi West 6.9 mph - N/A   Overcast
8:53 PM 18.0 °F - 15.1 °F 88% 30.18 in 10.0 mi Calm Calm - N/A   Overcast
9:53 PM 19.9 °F - 17.1 °F 89% 30.17 in 10.0 mi Calm Calm - N/A   Overcast
10:53 PM 21.0 °F 16.2 °F 17.1 °F 85% 30.17 in 10.0 mi WSW 3.5 mph - N/A   Overcast
11:53 PM 21.9 °F 17.2 °F 18.0 °F 85% 30.16 in 10.0 mi WSW 3.5 mph - N/A   Overcast